This is the latest recevied weather packets stored in our database for station/object KC5DAQ-27. If no packets are shown the sender has not sent any weather packets the latest 1 day(s).
| Time | Temp. | Humidity | Pressure | Rain* | Wind** | Luminosity | Snow |
|---|---|---|---|---|---|---|---|
| 1778042132 | 25° C | 91% | 1000.4 hPa | 0 mm | 4.02 m/s, 178° | 0 W/m² | - |
| 1778042072 | 25° C | 91% | 1000.4 hPa | 0 mm | 3.58 m/s, 192° | 0 W/m² | - |
| 1778042012 | 25° C | 91% | 1000.3 hPa | 0 mm | 3.13 m/s, 173° | 0 W/m² | - |
| 1778041952 | 25° C | 90% | 1000.4 hPa | 0 mm | 3.58 m/s, 180° | 0 W/m² | - |
| 1778041892 | 25° C | 90% | 1000.5 hPa | 0 mm | 4.02 m/s, 176° | 0 W/m² | - |
| 1778041831 | 25° C | 90% | 1000.5 hPa | 0 mm | 4.02 m/s, 164° | 0 W/m² | - |
| 1778041769 | 25° C | 90% | 1000.5 hPa | 0 mm | 4.02 m/s, 161° | 0 W/m² | - |
| 1778041708 | 25° C | 90% | 1000.4 hPa | 0 mm | 3.58 m/s, 169° | 0 W/m² | - |
| 1778041646 | 25° C | 90% | 1000.4 hPa | 0 mm | 4.02 m/s, 172° | 0 W/m² | - |
| 1778041584 | 25° C | 90% | 1000.4 hPa | 0 mm | 4.47 m/s, 179° | 0 W/m² | - |
| 1778041524 | 25° C | 90% | 1000.3 hPa | 0 mm | 4.92 m/s, 188° | 0 W/m² | - |
| 1778041462 | 25° C | 90% | 1000.3 hPa | 0 mm | 4.02 m/s, 154° | 0 W/m² | - |
| 1778041401 | 25° C | 90% | 1000.2 hPa | 0 mm | 2.68 m/s, 171° | 0 W/m² | - |
| 1778041353 | 25° C | 90% | 1000.2 hPa | 0 mm | 3.58 m/s, 165° | 0 W/m² | - |
| 1778041278 | 25° C | 90% | 1000.3 hPa | 0 mm | 4.02 m/s, 189° | 0 W/m² | - |
| 1778041217 | 25° C | 90% | 1000.4 hPa | 0 mm | 4.47 m/s, 172° | 0 W/m² | - |
| 1778041155 | 25° C | 90% | 1000.3 hPa | 0 mm | 4.02 m/s, 179° | 0 W/m² | - |
| 1778041094 | 25° C | 90% | 1000.3 hPa | 0 mm | 3.13 m/s, 158° | 0 W/m² | - |
| 1778041032 | 25° C | 90% | 1000.4 hPa | 0 mm | 3.58 m/s, 165° | 0 W/m² | - |
| 1778040970 | 25° C | 90% | 1000.4 hPa | 0 mm | 2.68 m/s, 157° | 0 W/m² | - |
| 1778040909 | 25° C | 90% | 1000.4 hPa | 0 mm | 2.24 m/s, 183° | 0 W/m² | - |
| 1778040847 | 25° C | 90% | 1000.4 hPa | 0 mm | 2.24 m/s, 172° | 0 W/m² | - |
| 1778040784 | 25° C | 90% | 1000.5 hPa | 0 mm | 2.68 m/s, 188° | 0 W/m² | - |
| 1778040724 | 25° C | 90% | 1000.6 hPa | 0 mm | 3.13 m/s, 172° | 0 W/m² | - |
| 1778040663 | 25° C | 90% | 1000.7 hPa | 0 mm | 3.13 m/s, 189° | 0 W/m² | - |
* Rain latest hour (hover to see other rain measurements)
** Current wind speed in m/s (hover to see current wind gust speed)